| time (UTC) | temp F | wind direction | speed knots | gust knots | rain 1hr in | rain 24hr in | rain mn in | humidity % | barometer mb |
| 20260505162223 | 75 | 238 | 6.1 | 11.3 | 0.00 | 0.00 | 0.00 | 88 | 1011.0 |
| 20260505161724 | 74 | 208 | 2.6 | 6.1 | 0.00 | 0.00 | 0.00 | 89 | 1011.0 |
| 20260505161223 | 74 | 194 | 6.1 | 8.7 | 0.00 | 0.00 | 0.00 | 90 | 1011.0 |
| 20260505160725 | 74 | 164 | 4.3 | 7.8 | 0.00 | 0.00 | 0.00 | 90 | 1011.0 |
| 20260505160225 | 74 | 236 | 8.7 | 8.7 | 0.00 | 0.00 | 0.00 | 90 | 1011.0 |
| 20260505153223 | 73 | 219 | 5.2 | 7.8 | 0.00 | 0.00 | 0.00 | 92 | 1011.0 |
| 20260505152726 | 73 | 221 | 2.6 | 5.2 | 0.00 | 0.00 | 0.00 | 92 | 1011.0 |
| 20260505152225 | 73 | 219 | 6.1 | 6.1 | 0.00 | 0.00 | 0.00 | 92 | 1011.0 |
| 20260505151723 | 73 | 176 | 4.3 | 7.0 | 0.00 | 0.00 | 0.00 | 92 | 1011.0 |
| 20260505151225 | 72 | 174 | 3.5 | 6.1 | 0.00 | 0.00 | 0.00 | 93 | 1011.0 |
| 20260505150723 | 72 | 242 | 3.5 | 4.3 | 0.00 | 0.00 | 0.00 | 93 | 1011.0 |
| 20260505150224 | 72 | 243 | 5.2 | 7.8 | 0.00 | 0.00 | 0.00 | 93 | 1011.0 |
| 20260505140225 | 70 | 193 | 2.6 | 7.8 | 0.00 | 0.00 | 0.00 | 97 | 1010.0 |
| 20260505130223 | 70 | 178 | 1.7 | 10.4 | 0.00 | 0.00 | 0.00 | 96 | 1010.0 |
| 20260505124724 | 70 | 214 | 4.3 | 8.7 | 0.00 | 0.00 | 0.00 | 95 | 1010.0 |
| 20260505124223 | 70 | 178 | 4.3 | 7.0 | 0.00 | 0.00 | 0.00 | 95 | 1010.0 |
| 20260505123723 | 70 | 149 | 3.5 | 7.8 | 0.00 | 0.00 | 0.00 | 95 | 1010.0 |
| 20260505123223 | 70 | 214 | 6.1 | 8.7 | 0.00 | 0.00 | 0.00 | 95 | 1010.0 |
| 20260505122732 | 70 | 231 | 4.3 | 7.0 | 0.00 | 0.00 | 0.00 | 95 | 1010.0 |
| 20260505122223 | 70 | 221 | 3.5 | 6.1 | 0.00 | 0.00 | 0.00 | 95 | 1009.0 |
| 20260505121723 | 70 | 171 | 5.2 | 10.4 | 0.00 | 0.00 | 0.00 | 95 | 1010.0 |
| 20260505121223 | 70 | 167 | 2.6 | 7.0 | 0.00 | 0.00 | 0.00 | 95 | 1010.0 |
| 20260505120724 | 70 | 183 | 1.7 | 7.8 | 0.00 | 0.00 | 0.00 | 95 | 1010.0 |
| 20260505120223 | 70 | 192 | 2.6 | 6.1 | 0.00 | 0.00 | 0.00 | 95 | 1009.0 |
| 20260505115723 | 70 | 167 | 1.7 | 5.2 | 0.00 | 0.00 | 0.00 | 95 | 1009.0 |
| 20260505115226 | 70 | 178 | 4.3 | 8.7 | 0.00 | 0.00 | 0.00 | 95 | 1009.0 |
| 20260505114726 | 70 | 158 | 5.2 | 7.8 | 0.00 | 0.00 | 0.00 | 95 | 1009.0 |
| 20260505114224 | 70 | 168 | 4.3 | 6.1 | 0.00 | 0.00 | 0.00 | 95 | 1009.0 |
| 20260505113723 | 70 | 147 | 6.1 | 6.1 | 0.00 | 0.00 | 0.00 | 95 | 1009.0 |
| 20260505113223 | 70 | 184 | 2.6 | 7.8 | 0.00 | 0.00 | 0.00 | 95 | 1009.0 |
| 20260505112723 | 70 | 213 | 2.6 | 6.1 | 0.00 | 0.00 | 0.00 | 95 | 1009.0 |
| 20260505112224 | 70 | 173 | 4.3 | 6.1 | 0.00 | 0.00 | 0.00 | 95 | 1009.0 |
| 20260505111723 | 70 | 173 | 2.6 | 6.1 | 0.00 | 0.00 | 0.00 | 95 | 1009.0 |
| 20260505111223 | 70 | 170 | 3.5 | 7.8 | 0.00 | 0.00 | 0.00 | 95 | 1009.0 |
| 20260505110723 | 70 | 158 | 5.2 | 7.8 | 0.00 | 0.00 | 0.00 | 95 | 1009.0 |
| 20260505110223 | 70 | 193 | 2.6 | 7.0 | 0.00 | 0.00 | 0.00 | 95 | 1009.0 |
| 20260505101725 | 70 | 179 | 2.6 | 9.6 | 0.00 | 0.00 | 0.00 | 95 | 1009.0 |
| 20260505101223 | 70 | 201 | 2.6 | 7.0 | 0.00 | 0.00 | 0.00 | 95 | 1009.0 |
| 20260505100724 | 70 | 174 | 4.3 | 10.4 | 0.00 | 0.00 | 0.00 | 95 | 1009.0 |
| 20260505100223 | 70 | 211 | 4.3 | 6.1 | 0.00 | 0.00 | 0.00 | 95 | 1009.0 |
| 20260505095723 | 70 | 188 | 2.6 | 7.8 | 0.00 | 0.00 | 0.00 | 95 | 1009.0 |
| 20260505095225 | 69 | 174 | 2.6 | 6.1 | 0.00 | 0.00 | 0.00 | 95 | 1009.0 |
| 20260505094725 | 69 | 183 | 4.3 | 5.2 | 0.00 | 0.00 | 0.00 | 95 | 1009.0 |
| 20260505094223 | 69 | 227 | 5.2 | 7.8 | 0.00 | 0.00 | 0.00 | 96 | 1009.0 |
| 20260505093724 | 69 | 182 | 1.7 | 4.3 | 0.00 | 0.00 | 0.00 | 96 | 1009.0 |
| 20260505093223 | 69 | 193 | 5.2 | 6.1 | 0.00 | 0.00 | 0.00 | 96 | 1009.0 |
| 20260505092725 | 69 | 144 | 5.2 | 5.2 | 0.00 | 0.00 | 0.00 | 96 | 1009.0 |
| 20260505092224 | 69 | 180 | 2.6 | 4.3 | 0.00 | 0.00 | 0.00 | 96 | 1009.0 |
| 20260505091724 | 69 | 162 | 4.3 | 4.3 | 0.00 | 0.00 | 0.00 | 96 | 1010.0 |
| 20260505091223 | 69 | 161 | 2.6 | 6.1 | 0.00 | 0.00 | 0.00 | 96 | 1010.0 |
| 20260505090723 | 69 | 175 | 3.5 | 4.3 | 0.00 | 0.00 | 0.00 | 96 | 1009.0 |
| 20260505090223 | 69 | 183 | 2.6 | 5.2 | 0.00 | 0.00 | 0.00 | 96 | 1009.0 |
| 20260505085723 | 68 | 193 | 3.5 | 5.2 | 0.00 | 0.00 | 0.00 | 96 | 1009.0 |
| 20260505085223 | 68 | 150 | 6.1 | 7.8 | 0.00 | 0.00 | 0.00 | 97 | 1009.0 |
| 20260505084723 | 68 | 174 | 1.7 | 4.3 | 0.00 | 0.00 | 0.00 | 97 | 1009.0 |
| 20260505083753 | 68 | 178 | 1.7 | 3.5 | 0.00 | 0.00 | 0.00 | 97 | 1009.0 |
| 20260505083223 | 68 | 185 | 1.7 | 3.5 | 0.00 | 0.00 | 0.00 | 97 | 1010.0 |
| 20260505082723 | 68 | 181 | 2.6 | 4.3 | 0.00 | 0.00 | 0.00 | 97 | 1010.0 |
| 20260505082224 | 68 | 145 | 3.5 | 4.3 | 0.00 | 0.00 | 0.00 | 96 | 1010.0 |
| 20260505081723 | 68 | 187 | 1.7 | 3.5 | 0.00 | 0.00 | 0.00 | 96 | 1010.0 |
| 20260505081224 | 68 | 173 | 1.7 | 5.2 | 0.00 | 0.00 | 0.00 | 96 | 1010.0 |
| 20260505080725 | 68 | 193 | 2.6 | 4.3 | 0.00 | 0.00 | 0.00 | 96 | 1010.0 |
| 20260505080225 | 68 | 167 | 2.6 | 4.3 | 0.00 | 0.00 | 0.00 | 96 | 1010.0 |
| 20260505075723 | 68 | 147 | 4.3 | 4.3 | 0.00 | 0.00 | 0.00 | 96 | 1010.0 |
| 20260505075225 | 68 | 144 | 3.5 | 5.2 | 0.00 | 0.00 | 0.00 | 96 | 1010.0 |
| 20260505074724 | 68 | 182 | 2.6 | 2.6 | 0.00 | 0.00 | 0.00 | 96 | 1010.0 |
| 20260505074228 | 68 | 140 | 1.7 | 4.3 | 0.00 | 0.00 | 0.00 | 96 | 1010.0 |
| 20260505073723 | 68 | 188 | 1.7 | 5.2 | 0.00 | 0.00 | 0.00 | 96 | 1010.0 |
| 20260505073223 | 68 | 165 | 2.6 | 4.3 | 0.00 | 0.00 | 0.00 | 96 | 1010.0 |
| 20260505072723 | 68 | 188 | 0.9 | 3.5 | 0.00 | 0.00 | 0.00 | 95 | 1010.0 |
| 20260505072223 | 68 | 179 | 2.6 | 4.3 | 0.00 | 0.00 | 0.00 | 95 | 1011.0 |
| 20260505071723 | 68 | 125 | 2.6 | 4.3 | 0.00 | 0.00 | 0.00 | 95 | 1011.0 |
| 20260505071224 | 68 | 128 | 2.6 | 6.1 | 0.00 | 0.00 | 0.00 | 95 | 1011.0 |
| 20260505070723 | 68 | 186 | 0.9 | 4.3 | 0.00 | 0.00 | 0.00 | 95 | 1011.0 |
| 20260505070224 | 68 | 152 | 1.7 | 3.5 | 0.00 | 0.00 | 0.00 | 95 | 1011.0 |
| 20260505065724 | 68 | 130 | 2.6 | 3.5 | 0.00 | 0.00 | 0.00 | 95 | 1011.0 |
| 20260505065223 | 68 | 156 | 2.6 | 3.5 | 0.00 | 0.00 | 0.00 | 95 | 1011.0 |
| 20260505064724 | 68 | 165 | 2.6 | 2.6 | 0.00 | 0.00 | 0.00 | 95 | 1011.0 |
| 20260505064225 | 68 | 189 | 3.5 | 4.3 | 0.00 | 0.00 | 0.00 | 95 | 1011.0 |
| 20260505063723 | 68 | 120 | 1.7 | 4.3 | 0.00 | 0.00 | 0.00 | 95 | 1011.0 |
| 20260505063223 | 68 | 169 | 3.5 | 4.3 | 0.00 | 0.00 | 0.00 | 94 | 1011.0 |
| 20260505062723 | 69 | 177 | 2.6 | 6.1 | 0.00 | 0.00 | 0.00 | 94 | 1011.0 |
| 20260505061737 | 69 | 207 | 1.7 | 5.2 | 0.00 | 0.00 | 0.00 | 94 | 1011.0 |
| 20260505061223 | 69 | 146 | 3.5 | 5.2 | 0.00 | 0.00 | 0.00 | 93 | 1011.0 |
| 20260505060724 | 69 | 194 | 3.5 | 5.2 | 0.00 | 0.00 | 0.00 | 93 | 1011.0 |
| 20260505060223 | 69 | 151 | 2.6 | 7.0 | 0.00 | 0.00 | 0.00 | 93 | 1011.0 |
| 20260505055724 | 69 | 157 | 5.2 | 5.2 | 0.00 | 0.00 | 0.00 | 93 | 1011.0 |
| 20260505055223 | 69 | 143 | 5.2 | 7.0 | 0.00 | 0.00 | 0.00 | 92 | 1011.0 |
| 20260505054724 | 69 | 161 | 2.6 | 7.0 | 0.00 | 0.00 | 0.00 | 92 | 1011.0 |
| 20260505054223 | 69 | 196 | 3.5 | 6.1 | 0.00 | 0.00 | 0.00 | 92 | 1011.0 |
| 20260505053724 | 69 | 138 | 3.5 | 4.3 | 0.00 | 0.00 | 0.00 | 92 | 1011.0 |
| 20260505053223 | 69 | 174 | 3.5 | 7.0 | 0.00 | 0.00 | 0.00 | 91 | 1011.0 |
| 20260505052723 | 70 | 161 | 5.2 | 6.1 | 0.00 | 0.00 | 0.00 | 91 | 1011.0 |
| 20260505052223 | 70 | 164 | 2.6 | 6.1 | 0.00 | 0.00 | 0.00 | 91 | 1011.0 |
| 20260505051724 | 70 | 126 | 4.3 | 7.0 | 0.00 | 0.00 | 0.00 | 91 | 1011.0 |
| 20260505051223 | 70 | 164 | 5.2 | 11.3 | 0.00 | 0.00 | 0.00 | 91 | 1010.0 |
| 20260505050723 | 70 | 135 | 6.1 | 12.2 | 0.00 | 0.00 | 0.00 | 91 | 1010.0 |
| 20260505050223 | 70 | 117 | 4.3 | 7.0 | 0.00 | 0.00 | 0.00 | 90 | 1011.0 |
| 20260505041723 | 71 | 177 | 4.3 | 8.7 | 0.00 | 0.00 | 0.00 | 89 | 1011.0 |
| 20260505041224 | 71 | 182 | 4.3 | 5.2 | 0.00 | 0.00 | 0.00 | 89 | 1011.0 |
| 20260505040723 | 71 | 161 | 4.3 | 6.1 | 0.00 | 0.00 | 0.00 | 89 | 1011.0 |
| 20260505040223 | 71 | 155 | 2.6 | 7.0 | 0.00 | 0.00 | 0.00 | 88 | 1011.0 |
| 20260505035723 | 71 | 144 | 6.1 | 9.6 | 0.00 | 0.00 | 0.00 | 88 | 1011.0 |
| 20260505035223 | 72 | 128 | 4.3 | 7.0 | 0.00 | 0.00 | 0.00 | 88 | 1011.0 |
| 20260505034723 | 72 | 138 | 3.5 | 7.8 | 0.00 | 0.00 | 0.00 | 88 | 1011.0 |
| 20260505034223 | 72 | 147 | 5.2 | 9.6 | 0.00 | 0.00 | 0.00 | 87 | 1011.0 |
| 20260505033723 | 72 | 152 | 4.3 | 7.0 | 0.00 | 0.00 | 0.00 | 87 | 1011.0 |
| 20260505033223 | 72 | 140 | 3.5 | 9.6 | 0.00 | 0.00 | 0.00 | 87 | 1011.0 |
| 20260505032724 | 72 | 142 | 1.7 | 7.0 | 0.00 | 0.00 | 0.00 | 87 | 1011.0 |
| 20260505032223 | 72 | 138 | 5.2 | 5.2 | 0.00 | 0.00 | 0.00 | 87 | 1011.0 |
| 20260505031724 | 73 | 111 | 1.7 | 3.5 | 0.00 | 0.00 | 0.00 | 86 | 1011.0 |
| 20260505031223 | 73 | 129 | 4.3 | 5.2 | 0.00 | 0.00 | 0.00 | 86 | 1011.0 |
| 20260505030723 | 73 | 148 | 2.6 | 6.1 | 0.00 | 0.00 | 0.00 | 86 | 1011.0 |
| 20260505030227 | 73 | 133 | 4.3 | 5.2 | 0.00 | 0.00 | 0.00 | 85 | 1011.0 |
| 20260505025727 | 73 | 117 | 4.3 | 5.2 | 0.00 | 0.00 | 0.00 | 85 | 1012.0 |
| 20260505025223 | 73 | 88 | 2.6 | 6.1 | 0.00 | 0.00 | 0.00 | 85 | 1011.0 |
| 20260505024726 | 73 | 127 | 1.7 | 5.2 | 0.00 | 0.00 | 0.00 | 84 | 1011.0 |
| 20260505024223 | 74 | 163 | 3.5 | 4.3 | 0.00 | 0.00 | 0.00 | 84 | 1011.0 |
| 20260505023723 | 74 | 130 | 4.3 | 4.3 | 0.00 | 0.00 | 0.00 | 84 | 1011.0 |
| 20260505023223 | 74 | 117 | 2.6 | 3.5 | 0.00 | 0.00 | 0.00 | 83 | 1011.0 |
| 20260505022726 | 74 | 155 | 3.5 | 4.3 | 0.00 | 0.00 | 0.00 | 83 | 1011.0 |
| 20260505022223 | 74 | 124 | 2.6 | 5.2 | 0.00 | 0.00 | 0.00 | 83 | 1011.0 |
| 20260505021727 | 74 | 153 | 3.5 | 4.3 | 0.00 | 0.00 | 0.00 | 82 | 1011.0 |
| 20260505021226 | 75 | 169 | 3.5 | 5.2 | 0.00 | 0.00 | 0.00 | 82 | 1010.0 |
| 20260505020723 | 75 | 173 | 1.7 | 4.3 | 0.00 | 0.00 | 0.00 | 81 | 1011.0 |
| 20260505020225 | 75 | 153 | 3.5 | 5.2 | 0.00 | 0.00 | 0.00 | 81 | 1011.0 |
| 20260505015723 | 75 | 145 | 2.6 | 7.0 | 0.00 | 0.00 | 0.00 | 80 | 1011.0 |
| 20260505015224 | 75 | 118 | 6.1 | 6.1 | 0.00 | 0.00 | 0.00 | 80 | 1010.0 |
| 20260505014723 | 75 | 138 | 2.6 | 4.3 | 0.00 | 0.00 | 0.00 | 80 | 1010.0 |
| 20260505014223 | 76 | 164 | 1.7 | 4.3 | 0.00 | 0.00 | 0.00 | 79 | 1010.0 |
| 20260505013723 | 76 | 146 | 0.0 | 4.3 | 0.00 | 0.00 | 0.00 | 79 | 1011.0 |
| 20260505013223 | 76 | 163 | 2.6 | 4.3 | 0.00 | 0.00 | 0.00 | 78 | 1010.0 |
| 20260505012723 | 76 | 147 | 3.5 | 5.2 | 0.00 | 0.00 | 0.00 | 78 | 1010.0 |
| 20260505012223 | 77 | 168 | 2.6 | 7.8 | 0.00 | 0.00 | 0.00 | 77 | 1010.0 |
| 20260505011723 | 77 | 197 | 5.2 | 9.6 | 0.00 | 0.00 | 0.00 | 77 | 1010.0 |
| 20260505011223 | 77 | 131 | 3.5 | 9.6 | 0.00 | 0.00 | 0.00 | 77 | 1010.0 |
| 20260505010724 | 77 | 166 | 7.0 | 9.6 | 0.00 | 0.00 | 0.00 | 76 | 1010.0 |
| 20260505010227 | 77 | 151 | 7.0 | 8.7 | 0.00 | 0.00 | 0.00 | 76 | 1010.0 |
| 20260505005723 | 77 | 165 | 3.5 | 6.1 | 0.00 | 0.00 | 0.00 | 75 | 1010.0 |
| 20260505005224 | 78 | 122 | 3.5 | 8.7 | 0.00 | 0.00 | 0.00 | 75 | 1010.0 |
| 20260505004724 | 78 | 151 | 6.1 | 6.1 | 0.00 | 0.00 | 0.00 | 74 | 1010.0 |
| 20260505004224 | 78 | 160 | 3.5 | 9.6 | 0.00 | 0.00 | 0.00 | 74 | 1010.0 |
| 20260505003723 | 78 | 176 | 5.2 | 8.7 | 0.00 | 0.00 | 0.00 | 73 | 1010.0 |
| 20260505003224 | 78 | 159 | 3.5 | 4.3 | 0.00 | 0.00 | 0.00 | 73 | 1010.0 |
| 20260505002723 | 78 | 164 | 3.5 | 12.2 | 0.00 | 0.00 | 0.00 | 73 | 1010.0 |
| 20260505002223 | 79 | 167 | 4.3 | 6.1 | 0.00 | 0.00 | 0.00 | 72 | 1010.0 |
| 20260505001723 | 79 | 177 | 6.1 | 8.7 | 0.00 | 0.00 | 0.00 | 71 | 1010.0 |
| 20260505001228 | 79 | 150 | 4.3 | 9.6 | 0.00 | 0.00 | 0.00 | 70 | 1010.0 |
| 20260505000723 | 80 | 158 | 4.3 | 8.7 | 0.00 | 0.00 | 0.00 | 70 | 1010.0 |
| 20260505000226 | 80 | 179 | 5.2 | 7.8 | 0.00 | 0.00 | 0.00 | 69 | 1010.0 |
| 20260504235723 | 80 | 171 | 5.2 | 13.0 | 0.00 | 0.00 | 0.00 | 69 | 1011.0 |
| 20260504235223 | 79 | 192 | 8.7 | 9.6 | 0.00 | 0.00 | 0.00 | 69 | 1010.0 |
| 20260504234723 | 80 | 171 | 2.6 | 10.4 | 0.00 | 0.00 | 0.00 | 68 | 1011.0 |
| 20260504234223 | 80 | 156 | 2.6 | 7.8 | 0.00 | 0.00 | 0.00 | 68 | 1011.0 |
| 20260504233723 | 80 | 174 | 5.2 | 7.0 | 0.00 | 0.00 | 0.00 | 67 | 1011.0 |
| 20260504233223 | 80 | 207 | 5.2 | 13.0 | 0.00 | 0.00 | 0.00 | 67 | 1011.0 |
| 20260504232723 | 80 | 169 | 4.3 | 9.6 | 0.00 | 0.00 | 0.00 | 67 | 1011.0 |
| 20260504232223 | 80 | 156 | 5.2 | 9.6 | 0.00 | 0.00 | 0.00 | 66 | 1011.0 |
| 20260504231724 | 81 | 199 | 5.2 | 12.2 | 0.00 | 0.00 | 0.00 | 65 | 1012.0 |
| 20260504231223 | 81 | 170 | 7.8 | 8.7 | 0.00 | 0.00 | 0.00 | 63 | 1011.0 |
| 20260504230723 | 80 | 186 | 4.3 | 7.8 | 0.00 | 0.00 | 0.00 | 65 | 1012.0 |
| 20260504230224 | 80 | 191 | 5.2 | 10.4 | 0.00 | 0.00 | 0.00 | 64 | 1011.0 |
| 20260504225723 | 81 | 129 | 5.2 | 8.7 | 0.00 | 0.00 | 0.00 | 63 | 1012.0 |
| 20260504225223 | 81 | 233 | 11.3 | 11.3 | 0.00 | 0.00 | 0.00 | 62 | 1012.0 |
| 20260504224723 | 81 | 200 | 5.2 | 12.2 | 0.00 | 0.00 | 0.00 | 63 | 1012.0 |
| 20260504224223 | 80 | 181 | 7.0 | 13.0 | 0.00 | 0.00 | 0.00 | 63 | 1012.0 |
| 20260504223723 | 81 | 215 | 7.8 | 8.7 | 0.00 | 0.00 | 0.00 | 62 | 1012.0 |
| 20260504223223 | 81 | 166 | 4.3 | 11.3 | 0.00 | 0.00 | 0.00 | 63 | 1012.0 |
| 20260504222723 | 80 | 197 | 6.1 | 8.7 | 0.00 | 0.00 | 0.00 | 63 | 1012.0 |
| 20260504222224 | 80 | 165 | 7.0 | 11.3 | 0.00 | 0.00 | 0.00 | 63 | 1012.0 |
| 20260504221723 | 82 | 209 | 6.1 | 9.6 | 0.00 | 0.00 | 0.00 | 61 | 1012.0 |
| 20260504221223 | 80 | 214 | 4.3 | 11.3 | 0.00 | 0.00 | 0.00 | 63 | 1012.0 |
| 20260504220723 | 80 | 176 | 3.5 | 10.4 | 0.00 | 0.00 | 0.00 | 64 | 1012.0 |
| 20260504220223 | 80 | 174 | 6.1 | 8.7 | 0.00 | 0.00 | 0.00 | 62 | 1012.0 |
| 20260504215725 | 80 | 149 | 3.5 | 9.6 | 0.00 | 0.00 | 0.00 | 64 | 1012.0 |
| 20260504215224 | 80 | 160 | 4.3 | 9.6 | 0.00 | 0.00 | 0.00 | 63 | 1012.0 |
| 20260504214724 | 80 | 171 | 7.8 | 9.6 | 0.00 | 0.00 | 0.00 | 64 | 1012.0 |
| 20260504214226 | 80 | 119 | 11.3 | 13.0 | 0.00 | 0.00 | 0.00 | 63 | 1012.0 |
| 20260504213723 | 79 | 178 | 4.3 | 10.4 | 0.00 | 0.00 | 0.00 | 64 | 1012.0 |
| 20260504213224 | 80 | 170 | 4.3 | 10.4 | 0.00 | 0.00 | 0.00 | 64 | 1012.0 |
| 20260504212724 | 80 | 158 | 4.3 | 8.7 | 0.00 | 0.00 | 0.00 | 62 | 1012.0 |
| 20260504212223 | 80 | 208 | 1.7 | 7.8 | 0.00 | 0.00 | 0.00 | 64 | 1012.0 |
| 20260504211724 | 80 | 149 | 5.2 | 8.7 | 0.00 | 0.00 | 0.00 | 64 | 1012.0 |
| 20260504211223 | 80 | 163 | 7.0 | 10.4 | 0.00 | 0.00 | 0.00 | 63 | 1013.0 |
| 20260504210723 | 80 | 190 | 4.3 | 7.8 | 0.00 | 0.00 | 0.00 | 63 | 1013.0 |
| 20260504210223 | 80 | 181 | 4.3 | 10.4 | 0.00 | 0.00 | 0.00 | 63 | 1013.0 |
| 20260504205723 | 80 | 162 | 2.6 | 9.6 | 0.00 | 0.00 | 0.00 | 63 | 1013.0 |
| 20260504205224 | 80 | 136 | 7.0 | 10.4 | 0.00 | 0.00 | 0.00 | 62 | 1013.0 |
| 20260504204723 | 80 | 153 | 9.6 | 11.3 | 0.00 | 0.00 | 0.00 | 61 | 1013.0 |
| 20260504204223 | 80 | 172 | 7.0 | 12.2 | 0.00 | 0.00 | 0.00 | 62 | 1013.0 |
| 20260504203723 | 80 | 192 | 9.6 | 12.2 | 0.00 | 0.00 | 0.00 | 62 | 1013.0 |
| 20260504203223 | 79 | 171 | 5.2 | 7.8 | 0.00 | 0.00 | 0.00 | 63 | 1013.0 |
| 20260504202723 | 80 | 185 | 3.5 | 8.7 | 0.00 | 0.00 | 0.00 | 62 | 1013.0 |
| 20260504202223 | 80 | 167 | 5.2 | 10.4 | 0.00 | 0.00 | 0.00 | 62 | 1014.0 |
| 20260504201723 | 80 | 182 | 5.2 | 8.7 | 0.00 | 0.00 | 0.00 | 63 | 1014.0 |
| 20260504201224 | 79 | 170 | 6.1 | 9.6 | 0.00 | 0.00 | 0.00 | 64 | 1014.0 |
| 20260504200724 | 79 | 169 | 6.1 | 9.6 | 0.00 | 0.00 | 0.00 | 64 | 1014.0 |
| 20260504200225 | 80 | 157 | 8.7 | 10.4 | 0.00 | 0.00 | 0.00 | 64 | 1014.0 |
| 20260504195723 | 80 | 163 | 6.1 | 9.6 | 0.00 | 0.00 | 0.00 | 64 | 1014.0 |
| 20260504195223 | 80 | 190 | 3.5 | 8.7 | 0.00 | 0.00 | 0.00 | 63 | 1014.0 |
| 20260504194724 | 80 | 181 | 4.3 | 9.6 | 0.00 | 0.00 | 0.00 | 62 | 1014.0 |
| 20260504194223 | 79 | 225 | 11.3 | 12.2 | 0.00 | 0.00 | 0.00 | 63 | 1014.0 |
| 20260504193723 | 80 | 185 | 5.2 | 10.4 | 0.00 | 0.00 | 0.00 | 62 | 1014.0 |
| 20260504193223 | 79 | 244 | 6.1 | 10.4 | 0.00 | 0.00 | 0.00 | 63 | 1014.0 |
| 20260504192724 | 80 | 217 | 7.0 | 10.4 | 0.00 | 0.00 | 0.00 | 62 | 1015.0 |
| 20260504192224 | 80 | 184 | 7.0 | 10.4 | 0.00 | 0.00 | 0.00 | 61 | 1014.0 |
| 20260504191723 | 80 | 218 | 10.4 | 11.3 | 0.00 | 0.00 | 0.00 | 62 | 1015.0 |
| 20260504191223 | 79 | 180 | 8.7 | 11.3 | 0.00 | 0.00 | 0.00 | 63 | 1015.0 |
| 20260504190723 | 80 | 139 | 5.2 | 10.4 | 0.00 | 0.00 | 0.00 | 62 | 1015.0 |
| 20260504190224 | 79 | 132 | 6.1 | 10.4 | 0.00 | 0.00 | 0.00 | 62 | 1014.0 |
| 20260504185723 | 80 | 143 | 7.0 | 10.4 | 0.00 | 0.00 | 0.00 | 62 | 1015.0 |
| 20260504185223 | 80 | 180 | 6.1 | 10.4 | 0.00 | 0.00 | 0.00 | 62 | 1015.0 |
| 20260504184724 | 80 | 190 | 7.0 | 9.6 | 0.00 | 0.00 | 0.00 | 62 | 1015.0 |
| 20260504184224 | 79 | 176 | 10.4 | 11.3 | 0.00 | 0.00 | 0.00 | 64 | 1015.0 |
| 20260504183724 | 79 | 222 | 6.1 | 7.8 | 0.00 | 0.00 | 0.00 | 65 | 1015.0 |
| 20260504183223 | 79 | 181 | 7.0 | 10.4 | 0.00 | 0.00 | 0.00 | 63 | 1015.0 |
| 20260504182723 | 78 | 169 | 7.0 | 11.3 | 0.00 | 0.00 | 0.00 | 65 | 1015.0 |
| 20260504182224 | 78 | 120 | 9.6 | 11.3 | 0.00 | 0.00 | 0.00 | 64 | 1015.0 |
| 20260504181723 | 79 | 179 | 7.8 | 9.6 | 0.00 | 0.00 | 0.00 | 63 | 1015.0 |
| 20260504181223 | 78 | 181 | 5.2 | 10.4 | 0.00 | 0.00 | 0.00 | 65 | 1015.0 |
| 20260504180724 | 79 | 187 | 6.1 | 9.6 | 0.00 | 0.00 | 0.00 | 64 | 1016.0 |
| 20260504180223 | 78 | 204 | 4.3 | 9.6 | 0.00 | 0.00 | 0.00 | 64 | 1016.0 |
| 20260504175724 | 78 | 202 | 7.0 | 11.3 | 0.00 | 0.00 | 0.00 | 66 | 1015.0 |
| 20260504175223 | 77 | 181 | 2.6 | 10.4 | 0.00 | 0.00 | 0.00 | 66 | 1016.0 |
| 20260504174724 | 77 | 169 | 8.7 | 9.6 | 0.00 | 0.00 | 0.00 | 67 | 1016.0 |
| 20260504174224 | 77 | 209 | 6.1 | 10.4 | 0.00 | 0.00 | 0.00 | 66 | 1016.0 |
| 20260504173723 | 77 | 182 | 7.8 | 13.0 | 0.00 | 0.00 | 0.00 | 67 | 1016.0 |
| 20260504173225 | 77 | 179 | 6.1 | 11.3 | 0.00 | 0.00 | 0.00 | 68 | 1016.0 |
| 20260504172726 | 76 | 162 | 7.0 | 12.2 | 0.00 | 0.00 | 0.00 | 69 | 1016.0 |
| 20260504172223 | 75 | 168 | 3.5 | 8.7 | 0.00 | 0.00 | 0.00 | 71 | 1016.0 |
| 20260504171723 | 77 | 156 | 7.8 | 12.2 | 0.00 | 0.00 | 0.00 | 69 | 1016.0 |
| 20260504171223 | 77 | 207 | 7.8 | 11.3 | 0.00 | 0.00 | 0.00 | 69 | 1016.0 |
| 20260504170723 | 75 | 200 | 2.6 | 10.4 | 0.00 | 0.00 | 0.00 | 72 | 1016.0 |
| 20260504170224 | 75 | 195 | 3.5 | 10.4 | 0.00 | 0.00 | 0.00 | 73 | 1017.0 |